Bartow, FL

9:37 PM EST on February 24, 2017 (GMT -0500)
Bartow Municipal

Weather History for KBOW - March, 2012

Change the Weather History Date:

Thursday, March 8, 2012

  Actual Average Record
Temperature  
Mean Temperature 71 °F -  
Max Temperature 82 °F 77 °F 90 °F (1935)
Min Temperature 60 °F 55 °F 34 °F (1954)
Cooling Degree Days 6    
Growing Degree Days 21 (Base 50)    
Moisture  
Dew Point 62 °F    
Average Humidity 83    
Maximum Humidity 100    
Minimum Humidity 48    
Precipitation  
Precipitation 0.00 in - - ()
Sea Level Pressure  
Sea Level Pressure 30.25 in    
Wind  
Wind Speed 7 mph (East)    
Max Wind Speed 16 mph    
Max Gust Speed 21 mph    
Visibility 8 miles    
Events      
Averages and records for this station are not official NWS values.
T = Trace of Precipitation, MM = Missing Value Source: NWS Daily Summary

Daily Weather History Graph

Daily Weather History Graph

Search for Another Location

Airport or City:

Trip Planner

Search our weather history database for the weather conditions in past years. The results will help you decide how hot, cold, wet, or windy it might be!

Date:

Astronomy

Mar. 08, 2012 Rise Set
Actual Time 6:43 AM EST 6:32 PM EST
Civil Twilight 6:20 AM EST 6:55 PM EST
Nautical Twilight 5:53 AM EST 7:22 PM EST
Astronomical Twilight 5:26 AM EST 7:49 PM EST
Moon 7:08 PM EST (3/8) 6:32 AM EST (3/8)
Length of Visible Light 12h 35m
Length of Day
11h 48m
Full, 100% of the Moon is Illuminated
Mar 8
Full
Mar 14
Last Quarter
Mar 22
New
Mar 30
First Quarter
Apr 6
Full

Hourly Weather History & Observations

Time (EST) Temp. Heat Index Dew Point Humidity Pressure Visibility Wind Dir Wind Speed Gust Speed Precip Events Conditions
12:15 AM 62.6 °F - 62.6 °F 100% 30.32 in 7.0 mi ENE 5.8 mph - N/A   Clear
12:35 AM 60.8 °F - 60.8 °F 100% 30.31 in 7.0 mi ENE 4.6 mph - N/A   Clear
1:15 AM 62.6 °F - 62.6 °F 100% 30.31 in 7.0 mi NE 5.8 mph - N/A   Clear
1:35 AM 62.6 °F - 62.6 °F 100% 30.30 in 6.0 mi ENE 6.9 mph - N/A   Clear
1:55 AM 62.6 °F - 62.6 °F 100% 30.30 in 6.0 mi ENE 5.8 mph - N/A   Partly Cloudy
2:15 AM 62.6 °F - 62.6 °F 100% 30.29 in 7.0 mi ENE 5.8 mph - N/A   Clear
2:35 AM 62.6 °F - 62.6 °F 100% 30.28 in 6.0 mi East 4.6 mph - N/A   Clear
2:55 AM 60.8 °F - 60.8 °F 100% 30.28 in 5.0 mi ENE 5.8 mph - N/A   Clear
3:15 AM 60.8 °F - 60.8 °F 100% 30.27 in 5.0 mi ENE 5.8 mph - N/A   Clear
3:35 AM 62.6 °F - 62.6 °F 100% 30.27 in 5.0 mi NE 5.8 mph - N/A   Clear
3:55 AM 60.8 °F - 60.8 °F 100% 30.26 in 5.0 mi ENE 5.8 mph - N/A   Clear
4:15 AM 62.6 °F - 62.6 °F 100% 30.26 in 5.0 mi ENE 6.9 mph - N/A   Clear
4:35 AM 60.8 °F - 60.8 °F 100% 30.26 in 6.0 mi ENE 5.8 mph - N/A   Clear
4:55 AM 60.8 °F - 60.8 °F 100% 30.26 in 5.0 mi ENE 5.8 mph - N/A   Clear
5:15 AM 60.8 °F - 60.8 °F 100% 30.27 in 6.0 mi ENE 6.9 mph - N/A   Clear
5:35 AM 62.6 °F - 62.6 °F 100% 30.27 in 6.0 mi ENE 6.9 mph - N/A   Clear
5:55 AM 62.6 °F - 62.6 °F 100% 30.28 in 5.0 mi ENE 5.8 mph - N/A   Clear
6:15 AM 60.8 °F - 60.8 °F 100% 30.29 in 5.0 mi ENE 5.8 mph - N/A   Clear
6:35 AM 60.8 °F - 60.8 °F 100% 30.29 in 5.0 mi NE 5.8 mph - N/A   Clear
7:15 AM 62.6 °F - 62.6 °F 100% 30.30 in 4.0 mi ENE 4.6 mph - N/A   Clear
7:30 AM 62.6 °F - 62.6 °F 100% 30.31 in 7.0 mi ENE 4.6 mph - N/A   Clear
7:50 AM 64.4 °F - 64.4 °F 100% 30.32 in 7.0 mi ENE 5.8 mph - N/A   Clear
8:51 AM 69.8 °F - 64.4 °F 83% 30.32 in 12.0 mi East 10.4 mph - N/A   Clear
9:50 AM 73.4 °F - 62.6 °F 69% 30.33 in 12.0 mi East 12.7 mph 18.4 mph N/A   Scattered Clouds
10:55 AM 78.8 °F - 60.8 °F 54% 30.31 in 12.0 mi East 13.8 mph 20.7 mph N/A   Mostly Cloudy
11:51 AM 78.8 °F - 60.8 °F 54% 30.30 in 12.0 mi East 11.5 mph - N/A   Mostly Cloudy
12:50 PM 80.6 °F 81.1 °F 59.0 °F 48% 30.27 in 12.0 mi East 8.1 mph - N/A   Mostly Cloudy
1:50 PM 82.4 °F 82.9 °F 60.8 °F 48% 30.23 in 12.0 mi ENE 9.2 mph - N/A   Mostly Cloudy
3:15 PM 80.6 °F 81.1 °F 59.0 °F 48% 30.19 in 9.0 mi East 13.8 mph - N/A   Clear
3:35 PM 80.6 °F 81.1 °F 59.0 °F 48% 30.18 in 9.0 mi East 13.8 mph - N/A   Clear
3:55 PM 80.6 °F 81.5 °F 60.8 °F 51% 30.18 in 10.0 mi ENE 12.7 mph 16.1 mph N/A   Clear
4:15 PM 80.6 °F 81.5 °F 60.8 °F 51% 30.18 in 9.0 mi ESE 16.1 mph 19.6 mph N/A   Clear
4:35 PM 78.8 °F - 62.6 °F 57% 30.18 in 9.0 mi SE 12.7 mph - N/A   Clear
4:55 PM 75.2 °F - 62.6 °F 65% 30.19 in 10.0 mi ESE 12.7 mph 18.4 mph N/A   Clear
5:15 PM 77.0 °F - 62.6 °F 61% 30.19 in 9.0 mi SE 10.4 mph 16.1 mph N/A   Scattered Clouds
5:35 PM 75.2 °F - 62.6 °F 65% 30.19 in 9.0 mi SE 12.7 mph - N/A   Partly Cloudy
5:55 PM 75.2 °F - 62.6 °F 65% 30.19 in 9.0 mi SE 13.8 mph - N/A   Partly Cloudy
6:15 PM 73.4 °F - 62.6 °F 69% 30.20 in 8.0 mi SE 11.5 mph 17.3 mph N/A   Partly Cloudy
6:35 PM 73.4 °F - 62.6 °F 69% 30.21 in 9.0 mi SE 10.4 mph - N/A   Mostly Cloudy
6:55 PM 71.6 °F - 62.6 °F 73% 30.21 in 10.0 mi SE 6.9 mph - N/A   Mostly Cloudy
7:15 PM 71.6 °F - 62.6 °F 73% 30.21 in 10.0 mi ESE 8.1 mph - N/A   Mostly Cloudy
7:35 PM 71.6 °F - 62.6 °F 73% 30.22 in 10.0 mi ESE 6.9 mph - N/A   Scattered Clouds
7:55 PM 71.6 °F - 62.6 °F 73% 30.22 in 10.0 mi East 6.9 mph - N/A   Scattered Clouds
8:15 PM 69.8 °F - 62.6 °F 78% 30.23 in 10.0 mi ESE 6.9 mph - N/A   Scattered Clouds
8:35 PM 69.8 °F - 64.4 °F 83% 30.23 in 10.0 mi ESE 6.9 mph - N/A   Partly Cloudy
8:55 PM 68.0 °F - 64.4 °F 88% 30.23 in 10.0 mi ESE 6.9 mph - N/A   Clear
9:15 PM 68.0 °F - 64.4 °F 88% 30.24 in 10.0 mi East 4.6 mph - N/A   Scattered Clouds
9:35 PM 68.0 °F - 64.4 °F 88% 30.23 in 10.0 mi ESE 5.8 mph - N/A   Scattered Clouds
9:55 PM 68.0 °F - 64.4 °F 88% 30.23 in 10.0 mi ESE 4.6 mph - N/A   Scattered Clouds
10:15 PM 68.0 °F - 64.4 °F 88% 30.23 in 10.0 mi ESE 6.9 mph - N/A   Scattered Clouds
10:35 PM 68.0 °F - 64.4 °F 88% 30.23 in 9.0 mi ESE 6.9 mph - N/A   Partly Cloudy
10:55 PM 68.0 °F - 64.4 °F 88% 30.23 in 8.0 mi SE 4.6 mph - N/A   Scattered Clouds
11:15 PM 68.0 °F - 64.4 °F 88% 30.22 in 8.0 mi East 4.6 mph - N/A   Mostly Cloudy
11:35 PM 68.0 °F - 64.4 °F 88% 30.22 in 9.0 mi ESE 5.8 mph - N/A   Mostly Cloudy
11:55 PM 68.0 °F - 64.4 °F 88% 30.22 in 9.0 mi ESE 4.6 mph - N/A   Mostly Cloudy